Wind_Speed
14 11 16 26 22 13 8 7 9 20 24 5 12 15 23 15 9 14 10 10 10 9 6 17 27 33 28 24 21 18 14 11 8 5 7 8 9 10 11 10 10 9 10 9
7 25 24 17 16 13 12 14 17 20 23 6 17 19 22 12 7 9 12 11 7 7 10 12 23 28 27 24 21 16 13 11 8 4 6 9 8 8 10 9 10 9 8 10
22 8 19 17 15 13 16 18 17 18 21 16 11 16 9 6 3 3 7 4 8 17 15 14 13 21 27 24 21 17 14 10 7 3 1 2 5 6 5 5 6 6 5 4
18 21 16 21 18 17 19 17 19 16 12 8 6 7 6 6 5 5 8 7 10 14 12 15 13 15 26 24 20 17 14 12 7 3 0 2 4 6 5 2 2 2 3 5
17 21 24 21 26 21 18 18 18 20 13 8 22 4 8 6 6 9 9 6 10 17 19 16 14 21 26 22 20 17 16 10 10 5 3 1 4 4 4 3 3 3 4 5
26 5 21 24 18 22 23 12 12 12 9 11 16 7 14 5 8 5 2 7 9 9 9 9 17 24 23 21 19 20 15 12 8 8 5 2 3 7 7 4 3 1 5 7
14 24 16 15 21 20 15 10 4 3 4 11 10 7 11 6 8 8 8 9 8 9 12 14 14 10 19 21 22 18 13 12 9 6 9 1 3 7 7 3 2 2 6 11
16 12 27 21 20 17 20 14 8 7 5 4 6 6 9 9 4 7 7 10 11 10 10 13 12 13 19 25 23 18 14 12 10 8 8 4 3 7 7 4 3 3 7 10
16 16 8 21 19 19 13 15 21 4 4 2 4 6 9 5 6 6 10 12 11 11 12 14 12 16 21 25 23 19 15 13 9 11 8 5 5 5 6 6 6 7 9 9
4 5 16 16 15 24 26 5 7 2 10 6 4 4 5 1 7 6 8 10 8 8 11 12 11 14 24 27 23 18 16 16 12 10 8 7 7 5 6 6 7 9 8 8
9 3 5 16 21 27 11 10 6 5 6 8 3 7 8 13 10 15 13 13 13 14 14 13 10 18 26 26 21 16 16 16 15 10 8 8 7 5 6 6 8 8 8 8
25 4 11 22 5 16 14 14 10 9 5 2 6 10 3 12 13 16 11 12 11 12 13 12 11 16 21 25 21 17 17 16 15 11 7 7 8 8 10 8 10 9 9 11
7 16 9 8 2 8 16 14 8 5 5 8 7 7 3 5 12 13 14 10 11 11 12 11 9 11 16 22 23 19 16 17 16 13 9 10 9 9 9 8 10 10 12 13
10 7 28 15 11 5 6 18 14 8 5 6 9 5 3 2 13 9 11 13 15 16 16 14 11 10 16 22 25 21 17 19 18 17 12 15 9 9 9 9 11 14 14 15
8 13 21 31 18 5 8 18 19 17 13 11 8 11 9 10 16 17 15 13 14 15 15 16 14 11 14 20 24 24 20 20 21 20 16 14 12 11 11 11 13 13 15 15
9 6 16 23 30 27 18 15 22 16 8 8 12 9 8 17 9 9 15 17 17 18 18 17 16 14 13 20 24 27 22 22 28 23 19 16 15 12 13 16 17 16 13 13
4 5 3 21 19 20 20 21 19 19 15 13 11 7 8 8 14 17 15 19 20 19 18 18 18 16 19 23 29 28 26 27 32 26 22 19 12 15 19 20 18 17 16 16
9 5 4 9 11 9 9 14 15 22 19 12 5 10 12 13 15 18 21 21 18 19 19 18 16 18 24 28 32 34 29 31 34 29 25 22 14 20 18 21 19 16 17 17
18 8 5 5 15 4 4 5 11 9 7 9 17 11 12 8 6 5 18 20 21 20 19 17 27 29 28 32 36 35 31 33 32 31 28 25 18 21 19 20 22 21 17 19
16 17 4 3 8 7 3 5 11 9 12 10 12 12 11 9 6 5 16 17 15 16 16 18 26 27 29 30 35 32 29 30 29 32 33 29 24 23 22 22 26 22 19 19
4 4 12 6 4 2 13 19 4 12 5 11 14 14 13 9 8 9 18 13 15 18 17 24 26 28 33 33 35 28 29 28 35 38 35 32 30 27 24 24 23 23 22 20
4 4 2 4 1 4 24 7 8 8 15 15 8 10 11 10 8 8 19 18 17 16 14 25 24 24 30 35 34 27 28 37 36 35 36 36 34 32 28 29 24 22 21 22
2 4 4 5 1 7 6 7 5 8 12 17 18 10 14 10 9 12 13 15 17 18 17 28 26 24 27 35 36 29 32 39 39 35 33 38 36 35 32 32 29 25 23 22
3 7 3 7 2 17 9 11 14 17 19 19 20 16 6 12 11 9 13 15 16 16 16 25 22 20 23 31 35 37 37 41 38 36 34 37 38 35 36 35 35 31 28 25
2 5 7 6 8 19 0 16 19 21 21 25 26 20 15 2 9 10 10 14 15 16 19 26 22 22 27 32 32 33 40 41 34 36 33 35 36 37 35 35 37 36 33 31
5 4 3 3 12 7 14 15 17 19 24 23 24 24 22 12 5 9 12 14 14 15 21 20 24 26 28 33 33 35 40 41 36 31 30 32 31 31 31 33 32 34 32 29
Wind_Direction
198 209 213 217 218 226 238 236 247 262 268 279 269 272 271 260 243 221 218 233 235 198 142 154 159 162 157 153 153 162 165 161 177 225 292 262 267 296 272 260 258 260 255 255
198 221 218 223 224 218 230 242 248 271 269 261 274 281 286 266 228 213 214 233 217 138 144 142 158 163 160 158 162 167 167 168 187 229 276 276 296 298 291 273 254 262 270 257
209 229 203 210 221 225 228 231 245 244 277 278 277 280 265 296 239 240 275 269 146 165 158 160 166 161 160 161 168 168 170 167 168 147 121 249 306 312 327 279 262 253 255 222
233 220 202 211 221 214 235 227 241 251 255 257 141 281 276 242 267 257 274 216 183 172 164 161 161 158 161 166 169 170 169 162 162 173 164 283 307 314 333 287 297 188 152 170
211 196 217 224 217 216 230 224 235 246 248 261 280 292 267 273 275 271 289 211 173 175 167 163 161 157 167 166 166 168 160 158 171 209 218 260 348 13 106 110 120 165 169 180
218 192 210 221 221 220 233 241 240 257 244 254 244 214 264 222 228 254 230 193 178 154 139 125 141 159 163 165 162 159 160 166 187 215 220 90 58 101 111 130 114 168 177 178
211 223 237 203 216 230 216 203 250 288 197 240 214 195 240 226 229 223 197 196 158 147 141 146 153 152 160 163 159 160 164 178 199 225 166 126 129 108 99 119 92 83 141 153
209 224 211 217 211 212 221 212 202 184 221 234 208 226 257 224 236 207 153 155 140 139 147 152 157 162 162 163 162 162 172 191 202 191 169 168 149 115 103 100 102 100 138 148
195 227 243 206 211 206 222 211 224 215 320 130 211 282 319 262 139 132 132 145 150 153 153 151 163 162 160 165 168 169 183 197 195 173 168 188 152 143 135 99 91 111 135 142
232 219 232 206 198 231 220 141 229 305 205 213 265 243 227 160 155 151 157 157 149 139 144 158 164 160 165 170 171 177 192 193 180 178 191 188 154 149 160 122 121 135 133 148
222 126 306 208 203 209 201 200 198 179 166 192 203 262 195 200 180 172 173 167 162 164 160 163 162 167 169 171 172 176 189 188 177 188 202 177 157 146 145 142 146 142 131 144
212 173 239 241 293 202 211 204 182 215 231 166 157 257 222 213 173 168 172 170 170 159 158 160 161 162 163 172 174 173 175 178 173 165 159 152 148 134 136 144 157 149 133 136
252 218 249 322 229 241 203 201 179 143 123 188 161 256 358 129 151 173 158 166 157 153 152 155 154 164 166 173 177 178 178 182 173 168 150 149 142 135 136 134 152 146 141 135
308 228 208 221 221 167 202 201 188 149 149 163 196 198 228 205 155 171 170 161 164 165 164 165 164 169 168 176 180 183 183 185 174 169 152 145 155 141 142 129 132 153 145 137
3 222 206 222 234 248 220 213 193 189 182 174 201 192 218 191 176 181 171 159 158 164 168 174 172 172 170 175 182 186 185 181 172 166 153 158 165 153 142 140 131 145 154 148
336 292 203 221 226 239 249 229 197 193 177 142 179 208 202 190 171 144 170 164 172 177 178 179 178 173 173 176 181 186 185 178 171 168 162 164 177 164 159 153 136 135 142 144
273 327 292 223 219 232 236 235 209 184 177 152 186 201 169 149 174 178 174 177 179 180 180 179 183 182 178 177 181 185 185 175 173 169 169 171 180 162 162 168 149 145 144 143
238 302 280 221 209 215 228 208 203 198 183 186 160 176 168 190 187 188 183 178 184 181 181 186 182 182 180 179 182 186 182 176 176 173 174 179 175 161 151 176 168 157 149 148
209 208 274 194 204 240 215 218 181 166 231 178 184 195 193 160 107 185 186 183 185 185 184 184 183 182 176 178 183 182 176 175 174 176 177 181 180 169 154 149 163 161 152 149
181 201 208 322 150 197 169 285 193 154 222 192 176 186 193 140 145 222 191 194 192 183 182 179 180 175 174 178 178 172 172 169 173 178 180 180 181 176 173 152 156 161 158 154
298 175 220 234 257 76 344 318 106 166 273 314 187 192 184 179 180 187 181 183 187 182 179 177 166 172 181 174 172 171 173 179 182 185 185 183 185 185 185 180 168 162 168 162
310 303 5 317 172 67 350 346 60 304 316 334 227 177 182 189 179 160 177 183 180 182 169 170 173 175 174 174 172 170 178 185 186 186 189 190 189 188 186 187 185 181 169 173
216 6 304 30 216 344 327 55 354 310 342 3 355 292 165 158 165 162 170 176 175 173 176 176 175 169 173 176 177 175 184 183 186 188 189 194 194 192 188 187 187 185 187 184
298 3 296 328 245 341 306 355 340 358 359 350 358 344 200 157 157 157 157 165 168 167 173 173 167 169 172 181 182 185 183 186 186 192 192 192 192 192 191 189 190 189 190 193
243 314 318 291 307 335 63 352 348 347 351 2 358 353 349 214 164 152 157 161 162 167 171 168 173 175 179 180 185 184 187 185 184 193 191 186 187 189 187 189 189 193 197 198
153 201 64 286 297 261 286 326 339 348 355 355 348 338 342 354 237 155 167 170 161 166 170 172 178 178 180 181 184 185 186 188 183 186 184 182 182 182 183 185 194 199 206 206
Height
735 750 752 744 740 741 749 755 755 733 717 736 735 728 710 700 700 697 700 700 699 701 702 708 714 720 724 727 731 737 739 740 743 745 746 746 745 743 741 740 741 740 740 741
737 731 725 729 732 740 745 751 749 731 718 734 730 727 706 696 697 695 694 695 696 703 704 707 714 718 720 725 732 736 738 739 741 743 744 744 743 742 739 738 738 737 737 737
723 713 716 726 732 739 738 745 741 742 723 722 732 732 719 691 688 686 688 688 695 697 701 706 713 716 720 726 730 734 736 737 740 742 743 743 743 740 737 736 736 734 734 735
715 709 714 721 726 728 740 722 725 731 740 758 723 759 728 697 693 688 686 686 691 692 696 701 710 715 719 725 729 732 735 736 739 741 742 742 741 738 736 735 734 734 734 734
699 704 714 719 714 715 721 715 723 724 735 744 729 751 727 703 699 691 685 687 689 686 689 700 707 713 719 724 728 731 733 736 738 740 741 741 740 736 735 735 734 734 734 734
694 686 697 700 702 705 702 719 722 725 735 756 732 743 716 715 697 686 678 684 687 692 697 703 709 714 719 723 727 730 733 735 738 740 740 740 739 736 736 735 734 734 734 735
697 697 689 687 705 699 708 730 760 776 765 751 726 739 716 691 685 680 680 686 690 693 698 703 709 714 718 722 726 730 732 735 737 739 739 739 738 736 736 736 735 734 734 735
703 709 686 675 687 701 706 719 742 761 764 745 717 728 704 674 666 667 671 680 689 695 699 703 709 712 717 721 725 728 731 734 736 738 738 738 737 737 737 736 734 735 735 737
692 692 662 664 674 684 695 709 699 727 727 734 726 703 683 670 675 678 682 685 690 694 698 703 708 711 715 720 724 726 730 733 736 737 737 738 737 737 737 736 736 736 737 738
673 693 664 661 668 670 677 684 714 731 745 745 730 713 715 688 687 686 689 688 692 696 700 703 706 711 714 718 723 726 729 732 735 736 737 737 737 738 738 738 737 737 738 739
664 677 674 660 664 666 683 692 696 701 716 737 751 725 687 681 683 684 682 681 688 693 695 700 705 709 712 718 721 724 728 732 734 735 736 737 738 738 739 739 739 739 740 741
650 678 688 664 646 645 662 672 683 696 712 710 719 707 665 667 672 670 677 679 684 689 694 699 704 707 712 717 720 723 727 730 733 735 736 738 738 739 740 740 739 740 741 742
662 663 690 677 661 651 654 654 665 680 694 704 716 711 659 663 666 667 674 680 685 690 695 699 703 707 711 716 719 722 725 729 732 735 736 737 738 740 741 741 740 742 742 744
678 654 656 666 649 644 654 647 651 667 697 700 687 685 665 671 668 672 673 676 680 684 690 695 701 704 709 713 717 720 724 728 731 735 737 738 739 741 742 742 741 743 745 746
681 653 641 634 637 635 636 635 641 647 657 673 678 680 669 670 663 662 666 675 680 685 689 692 696 701 706 711 715 718 722 726 730 734 737 739 740 742 743 744 744 745 747 748
683 673 634 641 630 632 642 629 629 635 649 657 659 669 649 647 653 665 666 671 676 679 683 687 691 696 702 707 711 715 720 724 729 733 736 739 740 742 744 746 747 748 750 751
697 680 655 642 628 634 650 628 624 628 631 642 662 648 645 654 655 656 663 662 665 670 676 682 686 689 695 702 707 711 716 722 727 731 735 738 740 741 744 747 749 750 752 753
687 684 677 639 638 661 615 601 604 615 620 624 632 633 636 634 639 641 643 650 657 661 667 673 678 684 689 696 703 708 713 719 725 729 734 737 740 742 744 747 750 752 754 755
668 682 678 655 635 622 606 602 605 620 629 618 620 625 622 629 637 643 637 639 643 649 655 662 668 675 684 690 697 704 710 716 722 727 731 736 739 742 745 747 749 753 756 758
648 660 666 650 652 650 607 592 580 593 632 608 612 618 620 627 656 647 634 636 641 644 650 658 665 673 679 686 693 700 706 712 718 723 728 733 738 741 744 747 750 754 757 759
662 660 661 656 660 625 632 614 582 629 644 615 602 606 612 625 621 616 621 630 635 638 645 654 661 666 672 681 689 696 702 708 712 719 725 730 735 739 743 747 750 753 757 760
681 673 664 659 640 646 640 621 637 661 636 621 600 599 606 604 609 611 615 622 630 637 645 650 656 663 670 676 684 691 697 702 709 715 721 727 732 736 741 745 749 753 756 759
683 687 684 674 664 667 659 661 661 654 641 623 623 598 590 600 603 608 611 618 624 631 638 643 650 658 666 672 678 685 691 698 705 711 716 722 728 733 737 742 747 750 754 757
705 693 679 677 658 662 662 662 659 645 635 624 614 607 587 591 595 600 605 611 618 625 634 639 648 655 662 669 673 677 686 694 701 707 712 717 723 729 733 737 742 746 750 753
699 694 692 672 664 653 652 660 649 642 632 617 610 613 604 588 591 594 602 605 611 619 628 634 642 649 655 662 669 675 681 688 695 701 707 712 718 723 729 733 736 741 744 747
684 689 689 689 673 676 663 654 649 643 633 627 626 619 613 603 592 590 596 600 607 616 624 631 637 643 650 656 663 669 676 682 689 696 701 706 713 719 724 728 733 737 740 744